Forside
METAR-TAF:

METAR-TAF

Lufthavne :

Watertown Municipal Airport

Watertown, Wisconsin, USA

Breddekreds: 43-10N, længdekreds: 088-43W, højde: 254 m

Aktuelle vejr

Denne rapport blev lavet for 13 minutter siden, kl. 14:55 UTC
Vind 4 kt fra sydvest
Temperatur 10°C
Fugtighed 100%
Tryk 1008 hPa
Sigt: 1.6 km
Overskyet i en højde af 100 ft
dis

METAR: KRYV 081455Z AUTO 22004KT 1SM BR OVC001 10/10 A2977 RMK AO2 T01040104

Tid: 10:08 (15:08 UTC)


TAF: fraværende

Vejrobservationer og prognoser fra mere end 4000 lufthavne (METAR og TAF).

De gule og røde prikker repræsenterer de meteorologiske stationer.

Flyt musen over at se navnet på stationen.

Så klik over at se vejr observationer og prognoser.

At skifte det kort: Klik på de grønne knapper med et sort kors for at zoome ind; på den grønne knap med en bindestreg for at zoome ud; eller på de grønne pile for tilstødende kort.


METAR-TAF: